Location: Unspecified
(34.4950°S, 58.5160°W)
Time: 14:54:27
(UTC+00:00)

Cosmos 1655 Rocket - Pass Details

Date: 05 July 2022
Orbit: 971 x 1005 km, 83.0° (Epoch: 11 August)

Event Time Altitude Azimuth Distance (km) Brightness Sun altitude
Rises 21:37:53 0° 35° (NE) 3,717 6.9 -8.6°
Reaches altitude 10° 21:41:04 10° 50° (NE) 2,779 6.1 -9.2°
Maximum altitude 21:45:35 21° 96° (E) 2,118 5.2 -10.1°
Drops below altitude 10° 21:50:08 10° 141° (SE) 2,805 5.9 -11.0°
Enters shadow 21:51:43 - 150° (SSE) 3,254 6.3 -11.3°
